QPF
0.05 0.04 0.05 0.11 0.11 0.11 0.09 0.07 0.06 0.08 0.10 0.10 0.07 0.07 0.06 0.05 0.05 0.05 0.04 0.04 0.04 0.03 0.04 0.04 0.05 0.05 0.05 0.06 0.06 0.05 0.06 0.06 0.07 0.06 0.04 0.05 0.05 0.03 0.05 0.07 0.09 0.09 0.09
0.04 0.03 0.03 0.04 0.05 0.06 0.08 0.08 0.08 0.08 0.07 0.07 0.09 0.09 0.07 0.05 0.06 0.05 0.03 0.03 0.04 0.04 0.04 0.04 0.06 0.06 0.05 0.05 0.05 0.04 0.03 0.04 0.04 0.04 0.04 0.03 0.03 0.03 0.03 0.05 0.06 0.08 0.10
0.05 0.05 0.04 0.04 0.07 0.06 0.07 0.07 0.06 0.06 0.04 0.05 0.09 0.11 0.08 0.06 0.07 0.05 0.03 0.04 0.04 0.04 0.04 0.04 0.05 0.05 0.04 0.04 0.04 0.04 0.03 0.03 0.04 0.05 0.04 0.03 0.02 0.02 0.02 0.03 0.05 0.08 0.09
0.06 0.05 0.04 0.04 0.06 0.09 0.09 0.08 0.06 0.05 0.04 0.04 0.05 0.07 0.08 0.06 0.05 0.04 0.04 0.04 0.04 0.04 0.04 0.03 0.04 0.04 0.04 0.04 0.03 0.03 0.03 0.03 0.04 0.04 0.05 0.05 0.05 0.04 0.04 0.04 0.05 0.07 0.09
0.04 0.03 0.04 0.03 0.03 0.04 0.07 0.06 0.06 0.05 0.03 0.04 0.04 0.03 0.04 0.03 0.04 0.03 0.03 0.04 0.04 0.04 0.04 0.04 0.03 0.04 0.04 0.04 0.03 0.04 0.04 0.05 0.05 0.05 0.05 0.05 0.05 0.05 0.05 0.04 0.04 0.05 0.06
0.05 0.05 0.04 0.03 0.04 0.05 0.06 0.06 0.04 0.03 0.02 0.03 0.03 0.03 0.03 0.03 0.04 0.04 0.04 0.04 0.04 0.03 0.03 0.04 0.04 0.03 0.03 0.02 0.03 0.03 0.04 0.05 0.06 0.06 0.05 0.04 0.05 0.06 0.06 0.05 0.05 0.06 0.07
0.07 0.06 0.05 0.04 0.04 0.06 0.06 0.05 0.04 0.03 0.03 0.02 0.02 0.02 0.03 0.03 0.03 0.03 0.03 0.03 0.03 0.03 0.03 0.03 0.02 0.02 0.02 0.02 0.03 0.03 0.04 0.05 0.06 0.05 0.04 0.03 0.03 0.04 0.04 0.04 0.04 0.05 0.07
0.08 0.06 0.05 0.04 0.05 0.04 0.05 0.05 0.03 0.04 0.04 0.03 0.03 0.03 0.03 0.04 0.05 0.05 0.05 0.04 0.04 0.03 0.02 0.02 0.01 0.01 0.01 0.01 0.02 0.02 0.03 0.03 0.04 0.04 0.03 0.02 0.02 0.03 0.04 0.04 0.05 0.05 0.06
0.06 0.06 0.05 0.04 0.04 0.05 0.04 0.03 0.03 0.03 0.03 0.03 0.05 0.07 0.08 0.08 0.08 0.09 0.08 0.05 0.04 0.04 0.03 0.01 0.01 0.01 0.01 0.01 0.01 0.01 0.01 0.02 0.03 0.03 0.03 0.02 0.02 0.02 0.02 0.03 0.04 0.07 0.08
0.03 0.04 0.04 0.02 0.03 0.04 0.04 0.03 0.02 0.02 0.02 0.03 0.03 0.04 0.06 0.06 0.05 0.04 0.05 0.04 0.02 0.01 0.01 0.01 0.01 0.01 0.01 0.01 0.01 0.01 0.01 0.02 0.02 0.02 0.03 0.02 0.02 0.01 0.02 0.02 0.04 0.06 0.08
0.06 0.04 0.03 0.02 0.03 0.03 0.03 0.03 0.02 0.01 0.02 0.03 0.03 0.04 0.06 0.04 0.03 0.02 0.02 0.02 0.02 0.01 0.01 0.01 0.01 0.01 0.01 0.01 0.02 0.02 0.02 0.05 0.06 0.05 0.04 0.03 0.02 0.02 0.02 0.02 0.03 0.04 0.05
0.08 0.06 0.05 0.04 0.02 0.02 0.01 0.02 0.02 0.01 0.02 0.03 0.03 0.02 0.04 0.04 0.03 0.02 0.02 0.01 0.01 0.01 0.01 0.01 0.01 0.01 0.01 0.01 0.02 0.02 0.03 0.05 0.08 0.09 0.08 0.05 0.04 0.03 0.03 0.03 0.03 0.03 0.04
0.06 0.05 0.06 0.05 0.03 0.01 0.01 0.01 0.01 0.01 0.02 0.02 0.02 0.02 0.01 0.02 0.02 0.01 0.01 0.01 0.01 0.01 0.01 0.01 0.01 0.02 0.02 0.02 0.01 0.01 0.02 0.05 0.08 0.09 0.10 0.08 0.07 0.05 0.04 0.04 0.04 0.05 0.06
0.06 0.04 0.03 0.04 0.03 0.02 0.01 0.01 0.01 0.01 0.01 0.01 0.01 0.01 0.01 0.01 0.02 0.01 0.01 0.00 0.00 0.01 0.00 0.00 0.01 0.02 0.02 0.02 0.01 0.01 0.01 0.03 0.05 0.07 0.10 0.10 0.09 0.08 0.07 0.06 0.05 0.06 0.06
0.05 0.04 0.03 0.03 0.02 0.02 0.01 0.01 0.00 0.00 0.00 0.00 0.01 0.01 0.00 0.01 0.01 0.01 0.00 0.00 0.00 0.01 0.01 0.00 0.01 0.02 0.03 0.02 0.01 0.01 0.01 0.01 0.03 0.04 0.06 0.09 0.10 0.09 0.08 0.08 0.07 0.06 0.06
0.04 0.03 0.03 0.03 0.04 0.03 0.03 0.02 0.01 0.01 0.01 0.01 0.01 0.00 0.00 0.01 0.01 0.00 0.00 0.00 0.00 0.01 0.01 0.01 0.01 0.02 0.03 0.04 0.03 0.02 0.01 0.01 0.02 0.02 0.04 0.06 0.08 0.10 0.08 0.08 0.08 0.07 0.06
0.05 0.04 0.04 0.04 0.04 0.04 0.03 0.02 0.02 0.01 0.00 0.00 0.00 0.00 0.00 0.01 0.00 0.00 0.00 0.00 0.00 0.00 0.01 0.01 0.01 0.02 0.04 0.04 0.03 0.02 0.02 0.02 0.02 0.02 0.03 0.04 0.06 0.08 0.06 0.06 0.07 0.08 0.08
0.05 0.05 0.05 0.05 0.04 0.02 0.02 0.01 0.01 0.01 0.00 0.00 0.00 0.00 0.00 0.00 0.00 0.00 0.01 0.00 0.00 0.00 0.01 0.01 0.02 0.02 0.03 0.03 0.03 0.03 0.02 0.02 0.02 0.02 0.02 0.03 0.04 0.06 0.05 0.05 0.05 0.05 0.06
0.05 0.06 0.07 0.06 0.04 0.03 0.02 0.01 0.01 0.01 0.01 0.01 0.00 0.00 0.00 0.00 0.00 0.00 0.01 0.01 0.01 0.01 0.01 0.01 0.02 0.02 0.03 0.04 0.04 0.04 0.03 0.03 0.02 0.02 0.03 0.03 0.02 0.04 0.05 0.04 0.04 0.03 0.03
0.04 0.05 0.04 0.03 0.02 0.01 0.01 0.01 0.01 0.01 0.01 0.01 0.01 0.00 0.00 0.00 0.00 0.00 0.01 0.01 0.01 0.01 0.01 0.03 0.03 0.03 0.04 0.04 0.04 0.03 0.03 0.03 0.02 0.02 0.02 0.02 0.02 0.02 0.03 0.03 0.03 0.02 0.02
0.06 0.05 0.04 0.03 0.02 0.02 0.02 0.02 0.01 0.01 0.01 0.01 0.01 0.01 0.01 0.01 0.01 0.00 0.00 0.00 0.01 0.01 0.02 0.03 0.04 0.05 0.06 0.05 0.03 0.02 0.02 0.02 0.01 0.01 0.01 0.01 0.01 0.02 0.02 0.02 0.02 0.02 0.01
0.10 0.07 0.04 0.03 0.04 0.07 0.07 0.04 0.02 0.01 0.00 0.00 0.00 0.01 0.01 0.01 0.01 0.00 0.00 0.00 0.00 0.01 0.03 0.03 0.03 0.03 0.03 0.02 0.02 0.02 0.02 0.01 0.00 0.00 0.00 0.01 0.01 0.02 0.02 0.02 0.01 0.01 0.01
0.05 0.04 0.03 0.02 0.02 0.03 0.03 0.03 0.02 0.01 0.00 0.00 0.00 0.00 0.00 0.01 0.01 0.01 0.00 0.00 0.00 0.01 0.02 0.03 0.03 0.02 0.01 0.01 0.01 0.01 0.01 0.00 0.00 0.00 0.00 0.00 0.00 0.01 0.01 0.01 0.01 0.00 0.00
0.02 0.01 0.01 0.01 0.01 0.01 0.01 0.00 0.00 0.00 0.00 0.01 0.01 0.00 0.01 0.01 0.01 0.01 0.01 0.01 0.01 0.01 0.01 0.03 0.03 0.02 0.01 0.01 0.01 0.00 0.00 0.00 0.00 0.00 0.00 0.00 0.00 0.01 0.01 0.01 0.01 0.00 0.00
0.01 0.01 0.01 0.00 0.00 0.00 0.00 0.00 0.00 0.00 0.00 0.01 0.01 0.01 0.01 0.01 0.01 0.01 0.01 0.01 0.01 0.01 0.00 0.01 0.01 0.01 0.01 0.00 0.00 0.00 0.00 0.00 0.00 0.00 0.00 0.00 0.00 0.00 0.00 0.00 0.01 0.01 0.01
0.00 0.00 0.00 0.00 0.00 0.00 0.00 0.00 0.00 0.00 0.00 0.00 0.01 0.00 0.00 0.00 0.00 0.01 0.01 0.01 0.01 0.00 0.00 0.00 0.00 0.00 0.00 0.00 0.00 0.00 0.00 0.00 0.00 0.00 0.00 0.00 0.00 0.00 0.00 0.00 0.00 0.00 0.01
MSLP
1019.88 1020.12 1020.25 1020.26 1020.14 1019.93 1019.66 1019.39 1019.15 1018.96 1018.84 1018.76 1018.71 1018.64 1018.54 1018.39 1018.18 1017.92 1017.65 1017.38 1017.15 1016.97 1016.86 1016.84 1016.89 1017.02 1017.21 1017.44 1017.72 1018.01 1018.31 1018.60 1018.85 1019.07 1019.24 1019.35 1019.41 1019.42 1019.41 1019.37 1019.32 1019.27 1019.21
1019.99 1020.39 1020.67 1020.79 1020.75 1020.57 1020.31 1020.02 1019.75 1019.54 1019.41 1019.34 1019.30 1019.25 1019.17 1019.02 1018.80 1018.50 1018.17 1017.82 1017.50 1017.22 1017.02 1016.90 1016.86 1016.90 1017.02 1017.19 1017.41 1017.67 1017.94 1018.23 1018.51 1018.77 1019.00 1019.20 1019.35 1019.47 1019.54 1019.58 1019.58 1019.54 1019.47
1019.94 1020.50 1020.93 1021.19 1021.26 1021.17 1020.95 1020.68 1020.42 1020.22 1020.09 1020.03 1020.01 1019.99 1019.93 1019.79 1019.55 1019.23 1018.85 1018.43 1018.02 1017.65 1017.34 1017.11 1016.96 1016.90 1016.91 1017.00 1017.14 1017.33 1017.57 1017.84 1018.13 1018.43 1018.72 1019.00 1019.25 1019.46 1019.63 1019.75 1019.81 1019.81 1019.74
1019.81 1020.51 1021.10 1021.51 1021.72 1021.73 1021.59 1021.38 1021.16 1020.98 1020.86 1020.82 1020.82 1020.81 1020.75 1020.62 1020.38 1020.03 1019.61 1019.14 1018.65 1018.19 1017.78 1017.45 1017.19 1017.02 1016.93 1016.91 1016.96 1017.08 1017.26 1017.49 1017.78 1018.10 1018.43 1018.77 1019.10 1019.39 1019.65 1019.84 1019.96 1020.00 1019.95
1019.70 1020.52 1021.25 1021.80 1022.14 1022.27 1022.24 1022.10 1021.92 1021.77 1021.67 1021.63 1021.63 1021.62 1021.56 1021.42 1021.16 1020.81 1020.36 1019.85 1019.31 1018.79 1018.30 1017.88 1017.52 1017.25 1017.05 1016.93 1016.89 1016.92 1017.04 1017.23 1017.48 1017.79 1018.14 1018.52 1018.88 1019.24 1019.55 1019.80 1019.98 1020.08 1020.07
1019.68 1020.59 1021.43 1022.11 1022.57 1022.81 1022.87 1022.80 1022.67 1022.55 1022.45 1022.40 1022.38 1022.35 1022.27 1022.10 1021.84 1021.46 1021.00 1020.47 1019.91 1019.35 1018.81 1018.33 1017.90 1017.55 1017.26 1017.05 1016.92 1016.87 1016.92 1017.04 1017.25 1017.53 1017.86 1018.23 1018.60 1018.98 1019.32 1019.62 1019.85 1020.00 1020.06
1019.80 1020.76 1021.68 1022.44 1023.00 1023.33 1023.47 1023.46 1023.37 1023.25 1023.15 1023.07 1023.01 1022.93 1022.81 1022.62 1022.33 1021.95 1021.48 1020.95 1020.39 1019.82 1019.26 1018.74 1018.28 1017.86 1017.51 1017.23 1017.02 1016.90 1016.87 1016.92 1017.07 1017.29 1017.57 1017.90 1018.25 1018.62 1018.96 1019.28 1019.56 1019.78 1019.92
1020.06 1021.04 1021.99 1022.80 1023.42 1023.81 1024.00 1024.03 1023.96 1023.84 1023.71 1023.60 1023.48 1023.35 1023.18 1022.95 1022.64 1022.25 1021.78 1021.27 1020.72 1020.16 1019.61 1019.09 1018.60 1018.15 1017.76 1017.42 1017.16 1016.97 1016.86 1016.85 1016.92 1017.07 1017.29 1017.55 1017.86 1018.18 1018.52 1018.85 1019.17 1019.45 1019.70
1020.45 1021.42 1022.36 1023.18 1023.81 1024.22 1024.44 1024.49 1024.42 1024.29 1024.14 1023.97 1023.80 1023.62 1023.39 1023.12 1022.79 1022.39 1021.93 1021.44 1020.92 1020.38 1019.85 1019.34 1018.85 1018.39 1017.97 1017.60 1017.29 1017.05 1016.88 1016.80 1016.80 1016.88 1017.02 1017.22 1017.46 1017.74 1018.06 1018.39 1018.75 1019.11 1019.46
1020.93 1021.87 1022.77 1023.55 1024.16 1024.57 1024.78 1024.84 1024.76 1024.62 1024.43 1024.22 1024.00 1023.76 1023.49 1023.19 1022.83 1022.43 1021.99 1021.52 1021.03 1020.53 1020.03 1019.53 1019.06 1018.59 1018.16 1017.77 1017.42 1017.14 1016.93 1016.79 1016.73 1016.74 1016.82 1016.95 1017.14 1017.37 1017.66 1018.00 1018.39 1018.82 1019.28
1021.49 1022.36 1023.20 1023.92 1024.48 1024.85 1025.04 1025.08 1024.99 1024.83 1024.62 1024.38 1024.13 1023.85 1023.54 1023.21 1022.84 1022.45 1022.02 1021.58 1021.12 1020.65 1020.18 1019.71 1019.25 1018.79 1018.35 1017.95 1017.58 1017.27 1017.03 1016.86 1016.75 1016.71 1016.74 1016.82 1016.96 1017.16 1017.43 1017.77 1018.19 1018.67 1019.22
1022.09 1022.89 1023.64 1024.29 1024.77 1025.09 1025.25 1025.26 1025.16 1024.99 1024.76 1024.51 1024.23 1023.93 1023.60 1023.26 1022.89 1022.50 1022.10 1021.68 1021.25 1020.82 1020.38 1019.93 1019.48 1019.03 1018.60 1018.19 1017.81 1017.49 1017.23 1017.04 1016.91 1016.84 1016.84 1016.89 1017.00 1017.17 1017.43 1017.76 1018.19 1018.71 1019.31
1022.72 1023.44 1024.10 1024.65 1025.05 1025.31 1025.42 1025.41 1025.30 1025.13 1024.90 1024.64 1024.35 1024.04 1023.71 1023.36 1023.00 1022.63 1022.25 1021.86 1021.47 1021.07 1020.66 1020.23 1019.80 1019.37 1018.94 1018.53 1018.15 1017.83 1017.57 1017.37 1017.23 1017.16 1017.14 1017.18 1017.27 1017.43 1017.66 1017.99 1018.41 1018.92 1019.53
1023.36 1024.00 1024.57 1025.02 1025.34 1025.53 1025.60 1025.57 1025.45 1025.27 1025.05 1024.79 1024.50 1024.19 1023.87 1023.54 1023.19 1022.85 1022.50 1022.15 1021.79 1021.43 1021.05 1020.65 1020.24 1019.82 1019.40 1019.00 1018.64 1018.32 1018.06 1017.87 1017.74 1017.67 1017.65 1017.68 1017.77 1017.91 1018.12 1018.42 1018.81 1019.30 1019.87
1023.99 1024.56 1025.03 1025.39 1025.64 1025.77 1025.80 1025.74 1025.62 1025.44 1025.22 1024.97 1024.69 1024.39 1024.08 1023.76 1023.44 1023.13 1022.82 1022.51 1022.20 1021.88 1021.55 1021.18 1020.80 1020.40 1020.00 1019.61 1019.26 1018.95 1018.70 1018.52 1018.40 1018.34 1018.33 1018.36 1018.44 1018.56 1018.75 1019.01 1019.35 1019.77 1020.28
1024.58 1025.07 1025.46 1025.75 1025.93 1026.01 1026.01 1025.95 1025.82 1025.64 1025.43 1025.18 1024.91 1024.62 1024.32 1024.02 1023.73 1023.45 1023.19 1022.93 1022.67 1022.41 1022.12 1021.80 1021.46 1021.09 1020.71 1020.34 1019.99 1019.69 1019.45 1019.28 1019.17 1019.11 1019.11 1019.14 1019.21 1019.32 1019.47 1019.68 1019.96 1020.30 1020.72
1025.09 1025.52 1025.84 1026.07 1026.20 1026.25 1026.23 1026.16 1026.03 1025.86 1025.64 1025.40 1025.14 1024.85 1024.57 1024.29 1024.03 1023.79 1023.57 1023.37 1023.17 1022.97 1022.74 1022.47 1022.17 1021.83 1021.48 1021.13 1020.79 1020.50 1020.27 1020.09 1019.99 1019.93 1019.93 1019.96 1020.02 1020.11 1020.23 1020.39 1020.59 1020.86 1021.18
1025.49 1025.86 1026.14 1026.32 1026.43 1026.46 1026.44 1026.36 1026.24 1026.07 1025.86 1025.62 1025.36 1025.09 1024.81 1024.55 1024.32 1024.12 1023.96 1023.81 1023.68 1023.53 1023.36 1023.15 1022.89 1022.60 1022.27 1021.94 1021.61 1021.32 1021.09 1020.91 1020.80 1020.74 1020.73 1020.75 1020.80 1020.87 1020.96 1021.08 1021.22 1021.41 1021.64
1025.76 1026.10 1026.34 1026.50 1026.59 1026.62 1026.61 1026.54 1026.43 1026.27 1026.08 1025.84 1025.59 1025.32 1025.06 1024.82 1024.62 1024.46 1024.33 1024.24 1024.17 1024.08 1023.97 1023.81 1023.60 1023.34 1023.04 1022.72 1022.40 1022.11 1021.87 1021.68 1021.56 1021.49 1021.46 1021.48 1021.52 1021.57 1021.65 1021.73 1021.84 1021.97 1022.13
1025.93 1026.23 1026.45 1026.60 1026.69 1026.73 1026.73 1026.68 1026.59 1026.45 1026.27 1026.05 1025.81 1025.56 1025.31 1025.10 1024.92 1024.80 1024.72 1024.67 1024.64 1024.60 1024.54 1024.42 1024.25 1024.02 1023.75 1023.45 1023.14 1022.85 1022.59 1022.39 1022.25 1022.17 1022.13 1022.14 1022.17 1022.22 1022.28 1022.35 1022.43 1022.53 1022.64
1026.02 1026.29 1026.49 1026.63 1026.73 1026.79 1026.81 1026.79 1026.72 1026.61 1026.46 1026.26 1026.04 1025.81 1025.59 1025.40 1025.25 1025.16 1025.11 1025.09 1025.10 1025.09 1025.06 1024.98 1024.84 1024.64 1024.39 1024.10 1023.80 1023.51 1023.25 1023.04 1022.88 1022.78 1022.73 1022.72 1022.75 1022.80 1022.86 1022.92 1023.00 1023.08 1023.17
1026.06 1026.31 1026.49 1026.62 1026.72 1026.80 1026.84 1026.84 1026.81 1026.74 1026.62 1026.46 1026.28 1026.08 1025.89 1025.73 1025.61 1025.54 1025.51 1025.51 1025.53 1025.55 1025.53 1025.47 1025.35 1025.17 1024.94 1024.67 1024.38 1024.10 1023.84 1023.62 1023.45 1023.34 1023.28 1023.26 1023.28 1023.32 1023.38 1023.45 1023.53 1023.61 1023.69
1026.11 1026.31 1026.47 1026.59 1026.69 1026.77 1026.83 1026.86 1026.86 1026.83 1026.75 1026.64 1026.51 1026.36 1026.21 1026.08 1025.98 1025.93 1025.91 1025.92 1025.94 1025.95 1025.94 1025.88 1025.77 1025.61 1025.40 1025.15 1024.88 1024.61 1024.36 1024.14 1023.97 1023.85 1023.77 1023.74 1023.75 1023.78 1023.84 1023.91 1023.98 1024.06 1024.14
1026.16 1026.32 1026.45 1026.54 1026.63 1026.71 1026.78 1026.83 1026.87 1026.88 1026.85 1026.80 1026.71 1026.61 1026.51 1026.41 1026.34 1026.29 1026.27 1026.27 1026.28 1026.28 1026.25 1026.19 1026.09 1025.94 1025.75 1025.52 1025.28 1025.03 1024.80 1024.60 1024.43 1024.30 1024.22 1024.17 1024.16 1024.17 1024.22 1024.27 1024.34 1024.42 1024.49
1026.20 1026.33 1026.41 1026.48 1026.55 1026.62 1026.69 1026.77 1026.83 1026.88 1026.90 1026.90 1026.87 1026.82 1026.77 1026.70 1026.65 1026.61 1026.57 1026.55 1026.53 1026.50 1026.45 1026.38 1026.27 1026.13 1025.97 1025.77 1025.57 1025.36 1025.16 1024.98 1024.82 1024.69 1024.60 1024.53 1024.49 1024.48 1024.50 1024.53 1024.58 1024.64 1024.70
1026.20 1026.30 1026.36 1026.40 1026.45 1026.50 1026.58 1026.66 1026.74 1026.82 1026.89 1026.94 1026.96 1026.96 1026.94 1026.91 1026.87 1026.82 1026.77 1026.72 1026.66 1026.59 1026.52 1026.43 1026.32 1026.19 1026.05 1025.89 1025.73 1025.57 1025.41 1025.26 1025.12 1025.00 1024.89 1024.81 1024.74 1024.70 1024.68 1024.67 1024.69 1024.72 1024.76
Thickness
5686 5684 5683 5681 5679 5678 5679 5679 5679 5678 5678 5677 5676 5675 5674 5674 5674 5673 5672 5672 5672 5672 5672 5672 5673 5673 5673 5673 5675 5675 5675 5675 5675 5675 5675 5678 5680 5681 5682 5683 5683 5684 5685
5679 5677 5676 5673 5671 5670 5670 5670 5670 5670 5670 5668 5667 5668 5667 5666 5666 5665 5664 5664 5664 5664 5664 5664 5664 5665 5665 5665 5666 5666 5666 5667 5667 5667 5666 5666 5669 5672 5674 5675 5675 5676 5677
5674 5671 5669 5667 5665 5663 5663 5663 5661 5661 5661 5661 5661 5661 5660 5658 5657 5656 5655 5655 5655 5655 5655 5655 5656 5656 5656 5656 5657 5658 5658 5658 5659 5660 5659 5658 5659 5661 5664 5665 5666 5667 5668
5670 5665 5662 5660 5658 5656 5656 5656 5655 5653 5653 5653 5653 5651 5649 5647 5646 5645 5645 5645 5645 5645 5645 5646 5647 5647 5647 5648 5649 5651 5651 5651 5651 5652 5653 5654 5655 5653 5654 5655 5657 5658 5659
5664 5660 5656 5653 5652 5651 5650 5649 5647 5646 5644 5643 5642 5641 5639 5637 5636 5635 5635 5635 5635 5635 5636 5636 5637 5637 5638 5639 5640 5642 5643 5644 5644 5645 5646 5647 5648 5649 5648 5648 5648 5649 5649
5658 5653 5649 5647 5645 5643 5642 5640 5639 5637 5636 5634 5633 5631 5629 5628 5627 5626 5625 5624 5624 5625 5626 5626 5627 5627 5628 5629 5631 5633 5634 5636 5637 5638 5639 5640 5641 5642 5643 5642 5641 5640 5640
5653 5647 5643 5640 5637 5634 5633 5631 5630 5628 5625 5624 5623 5622 5620 5618 5616 5615 5614 5613 5613 5614 5614 5615 5616 5617 5619 5620 5622 5624 5625 5627 5628 5630 5631 5633 5634 5636 5637 5636 5635 5633 5631
5647 5642 5638 5635 5630 5627 5625 5623 5620 5618 5616 5614 5613 5611 5609 5607 5605 5603 5603 5602 5602 5602 5603 5604 5606 5607 5609 5611 5613 5614 5616 5618 5619 5621 5623 5625 5627 5629 5630 5630 5629 5626 5624
5640 5636 5632 5628 5624 5619 5615 5613 5611 5608 5606 5604 5602 5600 5598 5596 5594 5593 5592 5591 5591 5592 5593 5593 5595 5597 5598 5600 5602 5604 5605 5608 5610 5612 5615 5617 5619 5621 5623 5623 5624 5623 5620
5634 5629 5624 5619 5615 5611 5608 5604 5601 5598 5596 5594 5592 5590 5588 5586 5584 5583 5582 5581 5581 5582 5582 5583 5585 5587 5589 5590 5592 5594 5596 5598 5601 5604 5607 5609 5611 5612 5614 5615 5616 5617 5616
5630 5623 5617 5612 5607 5604 5600 5596 5593 5590 5587 5584 5582 5580 5578 5576 5575 5574 5572 5572 5572 5572 5573 5574 5575 5576 5578 5580 5582 5584 5586 5589 5591 5594 5597 5599 5601 5603 5605 5607 5608 5608 5608
5624 5617 5611 5605 5600 5596 5593 5589 5585 5582 5579 5577 5574 5572 5569 5568 5566 5565 5563 5563 5563 5563 5563 5564 5565 5566 5568 5570 5572 5574 5575 5578 5580 5583 5587 5589 5591 5593 5595 5596 5597 5598 5598
5617 5611 5604 5599 5594 5589 5586 5582 5579 5575 5572 5569 5566 5563 5561 5560 5557 5555 5555 5555 5554 5554 5554 5555 5555 5556 5558 5559 5561 5563 5565 5567 5570 5573 5576 5578 5581 5583 5585 5586 5587 5588 5588
5612 5604 5598 5592 5588 5583 5579 5576 5572 5569 5566 5562 5558 5555 5553 5551 5550 5548 5548 5547 5546 5545 5545 5546 5546 5547 5548 5550 5552 5554 5556 5558 5560 5563 5566 5569 5571 5573 5575 5577 5578 5578 5578
5606 5599 5592 5586 5581 5577 5574 5570 5566 5563 5559 5556 5552 5548 5546 5545 5543 5542 5541 5540 5539 5538 5537 5537 5538 5539 5540 5541 5542 5544 5547 5549 5551 5554 5556 5559 5563 5565 5567 5569 5569 5570 5569
5601 5594 5587 5582 5577 5573 5568 5564 5560 5557 5553 5550 5546 5543 5541 5539 5537 5535 5534 5533 5532 5531 5530 5530 5530 5531 5531 5532 5534 5536 5537 5539 5542 5544 5548 5551 5553 5555 5557 5559 5560 5561 5561
5596 5589 5583 5578 5573 5568 5563 5559 5555 5551 5547 5544 5541 5538 5536 5534 5532 5530 5528 5527 5525 5524 5524 5523 5523 5523 5523 5525 5526 5528 5529 5531 5533 5535 5539 5543 5545 5547 5548 5550 5551 5551 5551
5591 5584 5578 5572 5567 5562 5558 5554 5550 5546 5542 5539 5536 5533 5531 5528 5526 5525 5523 5521 5520 5519 5518 5517 5517 5518 5518 5519 5520 5521 5523 5524 5526 5528 5531 5534 5536 5538 5541 5542 5542 5542 5542
5586 5579 5573 5567 5562 5557 5553 5549 5544 5540 5537 5534 5531 5529 5526 5524 5522 5520 5518 5517 5515 5514 5513 5513 5512 5513 5513 5514 5515 5517 5518 5519 5520 5522 5525 5527 5529 5531 5534 5535 5535 5534 5533
5580 5573 5567 5562 5556 5552 5548 5544 5539 5536 5532 5530 5528 5525 5523 5520 5518 5516 5514 5513 5512 5510 5510 5509 5508 5508 5508 5510 5512 5513 5515 5515 5516 5517 5519 5522 5524 5526 5528 5529 5529 5528 5527
5573 5568 5562 5556 5551 5547 5543 5539 5536 5532 5529 5527 5524 5522 5520 5517 5515 5513 5512 5510 5509 5508 5507 5506 5505 5505 5505 5507 5509 5510 5511 5512 5512 5514 5516 5517 5520 5522 5523 5524 5524 5524 5524
5568 5562 5557 5551 5547 5543 5540 5536 5532 5529 5527 5524 5522 5519 5517 5516 5514 5512 5510 5508 5507 5506 5505 5504 5504 5504 5504 5505 5507 5508 5509 5510 5511 5512 5513 5515 5518 5520 5521 5522 5522 5522 5523
5564 5559 5553 5548 5544 5541 5538 5534 5531 5528 5525 5522 5519 5517 5515 5513 5512 5510 5509 5507 5506 5505 5504 5504 5503 5503 5503 5505 5506 5507 5509 5510 5511 5512 5514 5516 5518 5519 5520 5521 5522 5522 5523
5561 5556 5551 5546 5541 5538 5536 5533 5530 5527 5524 5521 5518 5516 5514 5512 5511 5510 5509 5507 5506 5506 5505 5505 5504 5503 5504 5505 5506 5508 5509 5511 5513 5514 5516 5517 5519 5520 5520 5521 5522 5522 5522
5559 5554 5549 5545 5541 5537 5534 5532 5529 5526 5523 5520 5518 5515 5513 5512 5511 5510 5509 5509 5508 5507 5507 5506 5506 5506 5507 5507 5508 5510 5512 5513 5514 5516 5518 5519 5520 5521 5521 5522 5522 5523 5523
5558 5553 5548 5545 5541 5537 5535 5532 5530 5527 5524 5521 5518 5516 5514 5513 5512 5511 5511 5512 5512 5512 5512 5511 5510 5510 5511 5512 5513 5515 5516 5517 5518 5519 5519 5520 5521 5522 5523 5524 5525 5525 5525